Stations météo

réclame
Mon MeteoGroup
Ulm-Mähringen, Allemagne (10840): Température de l'air & dewpoint: 13.06.2019 11:00:00 - 19.06.2019 11:00:00 (CEST)Ulm-Mähringen, Allemagne (10840): Température de l'air 5cm & Température de l'air -5cm: 13.06.2019 11:00:00 - 19.06.2019 11:00:00 (CEST)Ulm-Mähringen, Allemagne (10840): Température de l'air -20cm & Température de l'air -100cm: 13.06.2019 11:00:00 - 19.06.2019 11:00:00 (CEST)Ulm-Mähringen, Allemagne (10840): Vitesse du vent & gusts: 13.06.2019 11:00:00 - 19.06.2019 11:00:00 (CEST)Ulm-Mähringen, Allemagne (10840): Direction du vent: 13.06.2019 11:00:00 - 19.06.2019 11:00:00 (CEST)Ulm-Mähringen, Allemagne (10840): reduced air pressure: 13.06.2019 11:00:00 - 19.06.2019 11:00:00 (CEST)Ulm-Mähringen, Allemagne (10840): visibility: 13.06.2019 11:00:00 - 19.06.2019 11:00:00 (CEST)Ulm-Mähringen, Allemagne (10840): Ensoleillement: 13.06.2019 11:00:00 - 19.06.2019 11:00:00 (CEST)Ulm-Mähringen, Allemagne (10840): Quantités de précipitations: 13.06.2019 11:00:00 - 19.06.2019 11:00:00 (CEST)
Date & Time tt [°C] td [°C] tt 5cm [°C] tt -5cm [°C] tt -20cm [°C] tt -100cm [°C] ff [km/h] ff [knt] fx [km/h] fx [knt] dd ppp [hPa] vv [km] sd [min] rr [mm]
19.06.2019 11:00:00 23,8 13,0 27,6 27,6 19,6 14,8 15 8 25 13 SSW 1010,3 - 60 0,0
19.06.2019 10:00:00 22,2 13,2 25,9 24,4 19,4 14,8 10 5 16 9 SSW 1010,7 31 60 0,0
19.06.2019 09:00:00 20,4 13,9 22,5 21,2 19,5 14,8 8 4 13 7 SSW 1011,2 42 59 0,0
19.06.2019 08:00:00 17,6 12,8 19,5 17,8 19,7 14,7 7 4 9 5 SSW 1012,2 54 39 0,0
19.06.2019 07:00:00 14,2 12,2 13,7 16,6 20,1 14,7 4 2 5 3 W 1013,1 44 3 0,0
19.06.2019 06:00:00 13,5 11,7 11,7 16,5 20,5 14,7 2 1 5 3 SSW 1013,2 51 0 0,0
19.06.2019 05:00:00 13,8 12,0 12,6 17,3 20,8 14,7 4 2 9 5 WNW 1013,2 39 0 0,0
19.06.2019 04:00:00 14,4 12,0 12,8 17,8 21,2 14,7 7 4 11 6 WSW 1013,4 51 0 0,0
19.06.2019 03:00:00 16,7 12,4 14,4 18,4 21,6 14,7 9 5 16 8 SSW 1013,5 58 0 0,0
19.06.2019 02:00:00 17,7 12,9 16,3 19,4 22,0 14,7 11 6 18 10 SW 1013,8 57 0 0,0
19.06.2019 01:00:00 18,5 13,5 17,4 20,2 22,4 14,7 11 6 21 11 SSW 1013,9 58 0 0,0
19.06.2019 00:00:00 18,5 13,7 17,5 20,9 22,8 14,7 12 6 21 12 SSW 1014,1 53 0 0,0
18.06.2019 23:00:00 17,5 12,9 16,1 21,9 23,1 14,7 2 1 5 3 S 1014,0 70 0 0,0
18.06.2019 22:00:00 18,1 12,7 16,5 23,1 23,4 14,7 3 2 10 5 W 1013,5 70 3 0,0
18.06.2019 21:00:00 19,0 12,5 18,6 24,7 23,6 14,7 5 3 10 5 W 1013,0 70 0 0,0
18.06.2019 20:00:00 19,6 12,7 19,9 26,3 23,7 14,7 5 3 33 18 W 1013,0 70 9 0,0
18.06.2019 19:00:00 20,9 10,6 21,3 28,7 23,5 14,7 19 11 38 21 NW 1012,9 66 0 0,0
18.06.2019 18:00:00 24,4 14,9 25,9 32,3 22,9 14,7 6 3 9 5 NNE 1011,4 68 46 0,0
18.06.2019 17:00:00 26,1 12,3 32,3 34,3 22,2 14,7 7 4 14 8 SE 1011,5 42 60 0,0
18.06.2019 16:00:00 25,7 13,1 32,0 34,6 21,3 14,7 8 5 17 9 SSE 1012,1 39 60 0,0
18.06.2019 15:00:00 25,7 14,2 31,5 34,0 20,5 14,7 5 3 18 10 S 1012,5 44 60 0,0
18.06.2019 14:00:00 24,7 14,5 30,2 32,4 19,6 14,7 6 4 19 11 E 1013,1 44 56 0,0
18.06.2019 13:00:00 24,0 13,6 30,0 29,9 18,8 14,7 6 3 14 8 N 1013,8 45 43 0,0
18.06.2019 12:00:00 23,0 13,9 27,0 29,1 18,1 14,7 8 4 14 8 SE 1014,3 32 56 0,0
18.06.2019 11:00:00 22,2 14,3 27,0 26,3 17,5 14,7 5 3 11 6 E 1014,7 42 60 0,0
18.06.2019 10:00:00 21,1 14,3 24,8 22,9 17,2 14,7 4 2 8 4 E 1015,1 26 60 0,0
18.06.2019 09:00:00 19,2 13,8 21,9 19,4 17,2 14,6 5 3 11 6 E 1015,7 24 60 0,0
18.06.2019 08:00:00 17,6 13,4 17,8 16,3 17,3 14,6 6 3 11 6 ENE 1016,0 27 60 0,0
18.06.2019 07:00:00 13,9 11,1 13,9 13,7 17,7 14,6 5 3 8 4 NNW 1017,0 16 60 0,0
18.06.2019 06:00:00 11,4 10,3 9,1 13,2 18,0 14,6 4 2 7 4 NW 1017,5 10 13 0,0
18.06.2019 05:00:00 11,7 11,1 8,4 13,7 18,4 14,6 4 2 8 4 NW 1017,3 11 0 0,0
18.06.2019 04:00:00 12,4 11,0 9,2 14,3 18,8 14,6 5 3 7 4 NNW 1017,2 21 0 0,0
18.06.2019 03:00:00 12,6 11,4 9,4 15,0 19,2 14,6 6 3 8 4 NNW 1017,3 20 0 0,0
18.06.2019 02:00:00 12,8 11,5 10,2 15,7 19,6 14,6 4 2 6 3 WNW 1017,8 25 0 0,0
18.06.2019 01:00:00 14,0 12,4 11,2 16,5 19,9 14,6 4 2 7 4 NW 1017,7 31 0 0,0
18.06.2019 00:00:00 15,0 12,5 11,5 17,4 20,3 14,6 4 2 7 4 NW 1017,5 29 0 0,0
17.06.2019 23:00:00 16,3 12,7 12,8 18,5 20,5 14,6 6 4 8 4 NE 1017,1 40 0 0,0
17.06.2019 22:00:00 17,7 13,4 14,9 19,9 20,7 14,6 6 3 13 7 NE 1016,7 42 11 0,0
17.06.2019 21:00:00 19,0 13,5 17,9 21,3 20,8 14,6 10 5 19 11 ENE 1016,3 70 60 0,0
17.06.2019 20:00:00 21,4 13,0 22,2 23,2 20,7 14,6 14 8 23 12 ENE 1015,6 34 49 0,0
17.06.2019 19:00:00 22,3 13,5 24,7 25,1 20,4 14,6 16 8 30 16 E 1015,6 54 55 0,0
17.06.2019 18:00:00 22,8 13,3 26,9 26,3 20,1 14,6 16 8 29 16 ENE 1015,8 25 58 0,0
17.06.2019 17:00:00 22,4 14,0 26,2 27,3 19,6 14,6 19 10 29 16 E 1016,2 21 51 0,0
17.06.2019 16:00:00 22,2 13,6 27,3 27,1 19,0 14,6 15 8 28 15 ENE 1016,8 33 50 0,0
17.06.2019 15:00:00 21,6 13,9 27,3 26,8 18,4 14,6 16 9 28 15 ENE 1017,5 33 52 0,0
17.06.2019 14:00:00 20,7 13,0 25,3 26,0 17,7 14,6 14 8 29 15 ENE 1018,0 43 53 0,0
17.06.2019 13:00:00 20,2 13,2 24,7 24,9 17,1 14,6 16 8 26 14 E 1018,3 20 58 0,0
17.06.2019 12:00:00 19,1 12,7 23,8 23,4 16,6 14,6 18 10 29 16 ENE 1018,9 19 58 0,0
17.06.2019 11:00:00 18,2 12,3 22,9 21,4 16,2 14,5 13 7 20 11 ENE 1019,7 23 50 0,0
17.06.2019 10:00:00 17,0 12,4 20,4 19,5 15,9 14,5 13 7 22 12 E 1020,2 14 60 0,0
17.06.2019 09:00:00 15,5 12,1 18,1 16,8 15,9 14,5 10 5 18 10 E 1021,0 20 58 0,0
17.06.2019 08:00:00 14,2 12,4 15,3 13,9 16,1 14,5 8 4 12 6 NE 1021,3 10 46 0,0
17.06.2019 07:00:00 12,4 10,1 11,7 11,4 16,4 14,5 4 2 9 5 NE 1022,1 12 60 0,0
17.06.2019 06:00:00 8,3 7,7 6,4 11,0 16,8 14,5 4 2 6 4 NW 1023,0 6 16 0,0
17.06.2019 05:00:00 8,3 8,0 6,4 11,5 17,2 14,5 5 3 7 4 NW 1022,7 1,2 0 0,0
17.06.2019 04:00:00 9,3 9,0 7,1 12,1 17,6 14,5 4 2 7 4 WNW 1022,7 9 0 0,0
17.06.2019 03:00:00 9,4 8,8 7,3 12,8 18,0 14,5 3 1 5 3 NW 1023,2 6 0 0,0
17.06.2019 02:00:00 10,1 9,6 7,9 13,5 18,4 14,5 3 2 5 3 WNW 1023,2 10 0 0,0
17.06.2019 01:00:00 10,6 9,7 8,8 14,3 18,8 14,5 4 2 6 3 WNW 1023,0 18 0 0,0
17.06.2019 00:00:00 11,2 10,1 9,3 15,1 19,1 14,5 4 2 5 3 W 1023,4 22 0 0,0
16.06.2019 23:00:00 13,3 11,5 10,2 16,1 19,4 14,4 3 2 6 3 E 1022,9 49 0 0,0
16.06.2019 22:00:00 14,1 11,4 12,0 17,4 19,7 14,4 6 3 9 5 NNE 1022,4 42 11 0,0
16.06.2019 21:00:00 16,5 12,1 15,2 18,8 19,8 14,4 5 3 13 7 NNE 1021,4 65 60 0,0
16.06.2019 20:00:00 18,1 11,0 20,1 20,5 19,8 14,4 10 6 16 9 N 1021,2 30 56 0,0
16.06.2019 19:00:00 17,9 11,6 19,1 21,7 19,6 14,4 9 5 22 12 NNE 1020,9 70 35 0,0
16.06.2019 18:00:00 18,7 11,2 23,2 23,4 19,4 14,4 16 9 23 13 N 1020,5 23 55 0,0
16.06.2019 17:00:00 18,8 11,7 24,4 22,3 19,2 14,4 13 7 21 12 N 1020,6 27 15 0,0
16.06.2019 16:00:00 17,2 11,4 19,6 22,6 19,0 14,4 16 9 26 14 NNW 1021,2 29 14 0,0
16.06.2019 15:00:00 17,5 12,2 20,2 23,3 18,6 14,4 16 9 23 13 NNW 1021,0 38 29 0,0
16.06.2019 14:00:00 17,6 10,7 22,7 22,1 18,4 14,4 10 5 23 12 NW 1021,2 45 17 0,0
16.06.2019 13:00:00 17,0 12,1 21,9 21,2 18,2 14,4 11 6 18 10 NNW 1021,6 40 1 0,0
16.06.2019 12:00:00 16,1 11,5 20,2 20,6 18,0 14,3 10 5 17 9 NW 1021,6 46 4 0,0
16.06.2019 11:00:00 15,1 11,7 17,6 18,7 18,0 14,3 10 5 19 10 WNW 1021,5 52 0 0,0
16.06.2019 10:00:00 14,6 12,1 16,1 18,1 18,0 14,3 7 4 13 7 W 1021,3 70 1 0,0
16.06.2019 09:00:00 13,9 12,0 15,1 17,1 18,2 14,3 6 3 13 7 W 1021,3 44 4 0,0
16.06.2019 08:00:00 13,2 11,4 13,7 15,9 18,4 14,3 8 4 13 7 W 1020,9 39 0 0,0
16.06.2019 07:00:00 12,7 11,7 12,9 15,6 18,7 14,3 5 3 14 8 W 1020,5 22 0 0,0
16.06.2019 06:00:00 12,8 11,6 12,7 15,7 19,0 14,3 6 3 11 6 W 1020,1 28 0 0,0
16.06.2019 05:00:00 12,9 12,2 12,9 15,9 19,3 14,3 7 4 10 5 WSW 1020,0 8 0 0,0
16.06.2019 04:00:00 12,9 12,2 12,9 16,1 19,7 14,3 6 4 13 7 WSW 1019,8 9 0 0,0
16.06.2019 03:00:00 12,9 11,8 12,7 16,4 20,1 14,3 8 5 17 9 WSW 1019,8 24 0 0,0
16.06.2019 02:00:00 13,2 12,0 12,9 16,7 20,6 14,3 11 6 21 11 SSW 1019,8 32 0 1,1
16.06.2019 01:00:00 13,4 12,0 13,1 17,2 21,0 14,3 14 7 33 18 NW 1018,7 6 0 3,6
16.06.2019 00:00:00 14,5 12,6 14,0 18,5 21,4 14,3 9 5 22 12 W 1018,9 10 0 3,6
15.06.2019 23:00:00 15,1 12,7 14,4 19,8 21,7 14,2 9 5 21 11 W 1017,1 62 0 0,5
15.06.2019 22:00:00 16,5 11,7 15,9 21,0 22,0 14,2 11 6 20 11 NNW 1015,2 70 0 0,0
15.06.2019 21:00:00 17,8 11,9 17,2 22,9 22,1 14,2 17 9 28 15 NNW 1014,5 70 39 0,0
15.06.2019 20:00:00 19,6 11,6 21,4 24,8 22,1 14,2 21 11 36 20 NNW 1014,6 12 60 0,0
15.06.2019 19:00:00 20,6 13,4 24,0 26,5 22,0 14,2 22 12 29 16 NNW 1014,4 15 60 0,0
15.06.2019 18:00:00 20,3 13,9 22,9 27,3 21,7 14,2 13 7 28 15 N 1014,3 42 20 0,0
15.06.2019 17:00:00 20,9 13,9 26,3 28,8 21,3 14,2 16 9 26 14 N 1014,5 30 40 0,0
15.06.2019 16:00:00 21,6 12,1 26,1 30,0 20,9 14,2 15 8 29 16 NW 1014,5 34 44 0,0
15.06.2019 15:00:00 21,2 12,2 25,3 29,1 20,3 14,2 18 10 31 17 NW 1014,5 21 48 0,0
15.06.2019 14:00:00 21,4 12,0 25,8 29,6 19,7 14,2 17 9 33 18 W 1014,5 16 56 0,0
15.06.2019 13:00:00 22,1 13,5 28,2 29,0 19,0 14,2 13 7 29 15 W 1014,0 23 58 0,0
15.06.2019 12:00:00 20,7 12,9 24,3 27,1 18,5 14,2 16 9 41 22 W 1014,2 23 60 0,0
15.06.2019 11:00:00 20,5 12,9 24,7 24,9 18,2 14,2 18 10 37 20 W 1014,0 19 58 0,0
15.06.2019 10:00:00 19,9 12,1 23,1 22,3 18,0 14,2 17 9 33 18 W 1013,6 18 60 0,0
15.06.2019 09:00:00 19,5 12,2 21,5 19,9 18,0 14,2 18 10 33 18 W 1012,9 26 60 0,0
15.06.2019 08:00:00 19,2 12,2 19,9 17,5 18,1 14,2 16 8 29 15 W 1011,7 40 46 0,0
15.06.2019 07:00:00 19,1 11,1 17,6 16,1 18,4 14,2 14 8 33 18 WSW 1010,8 66 0 0,0
15.06.2019 06:00:00 17,6 11,8 14,8 15,7 18,6 14,2 11 6 18 10 SW 1010,3 65 0 0,0
15.06.2019 05:00:00 13,5 11,9 11,8 16,3 18,9 14,2 4 2 6 4 W 1010,0 33 0 0,0
15.06.2019 04:00:00 14,4 12,8 13,4 16,8 19,2 14,2 4 2 6 3 WNW 1009,2 43 0 0,0
15.06.2019 03:00:00 15,1 13,0 14,1 17,4 19,4 14,2 3 1 10 5 W 1010,1 44 0 0,0
15.06.2019 02:00:00 15,7 13,2 14,8 17,8 19,7 14,2 4 2 23 12 N 1010,4 46 0 0,0
15.06.2019 01:00:00 16,2 12,9 15,4 18,2 20,0 14,2 7 4 11 6 W 1011,4 64 0 0,0
15.06.2019 00:00:00 16,9 13,3 14,8 18,8 20,3 14,1 3 1 8 4 W 1011,5 58 0 0,0
14.06.2019 23:00:00 17,4 13,4 15,9 19,3 20,6 14,1 4 2 15 8 N 1011,9 61 0 0,0
14.06.2019 22:00:00 17,9 13,8 16,3 20,4 20,8 14,1 13 7 17 9 N 1011,5 55 0 0,0
14.06.2019 21:00:00 19,2 13,7 18,5 21,9 20,9 14,1 8 4 16 9 N 1011,7 70 0 0,0
14.06.2019 20:00:00 21,1 12,8 20,7 23,4 20,9 14,1 12 6 21 12 NNW 1012,1 68 14 0,0
14.06.2019 19:00:00 23,2 13,9 25,6 25,6 20,7 14,1 16 8 22 12 N 1011,8 25 51 0,0
14.06.2019 18:00:00 23,2 13,0 24,7 26,4 20,4 14,1 18 10 27 14 N 1012,6 39 43 0,0
14.06.2019 17:00:00 24,1 12,4 27,8 26,9 20,0 14,1 18 10 29 16 N 1013,1 13 51 0,0
14.06.2019 16:00:00 24,1 11,6 26,2 27,6 19,4 14,1 16 9 30 16 NW 1014,0 18 41 0,0
14.06.2019 15:00:00 25,4 12,0 29,9 28,5 18,7 14,1 18 10 28 15 NW 1014,3 35 41 0,0
14.06.2019 14:00:00 25,1 14,2 31,2 28,9 17,9 14,1 10 5 16 8 NNW 1014,9 36 60 0,0
14.06.2019 13:00:00 24,7 14,4 29,2 27,5 17,2 14,1 5 3 18 10 NE 1015,0 50 60 0,0
14.06.2019 12:00:00 23,3 13,6 27,7 25,1 16,6 14,1 9 5 21 11 ESE 1015,0 28 60 0,0
14.06.2019 11:00:00 21,5 14,3 24,9 22,5 16,2 14,1 12 7 23 12 E 1015,1 19 60 0,0
14.06.2019 10:00:00 19,8 13,4 22,6 19,9 15,9 14,1 13 7 26 14 E 1015,5 22 60 0,0
14.06.2019 09:00:00 18,3 12,7 20,6 17,7 15,8 14,1 10 5 14 8 E 1015,9 33 60 0,0
14.06.2019 08:00:00 16,0 11,9 16,2 14,8 16,0 14,1 5 3 10 6 NE 1016,2 31 60 0,0
14.06.2019 07:00:00 11,6 9,8 11,7 12,2 16,3 14,1 5 3 11 6 NNW 1017,3 24 60 0,0
14.06.2019 06:00:00 8,9 7,9 7,7 11,7 16,7 14,1 4 2 6 3 WNW 1018,6 19 11 0,0
14.06.2019 05:00:00 9,1 8,6 6,7 12,1 17,1 14,1 3 2 4 2 W 1018,1 15 0 0,0
14.06.2019 04:00:00 9,5 8,8 7,3 12,7 17,5 14,1 3 2 5 3 WNW 1018,1 18 0 0,0
14.06.2019 03:00:00 9,8 9,0 8,2 13,4 17,9 14,1 3 2 6 3 WNW 1018,4 21 0 0,0
14.06.2019 02:00:00 10,6 9,5 8,8 14,1 18,3 14,1 3 2 5 3 W 1018,2 37 0 0,0
14.06.2019 01:00:00 11,3 10,1 9,1 14,8 18,7 14,1 4 2 5 3 WNW 1018,0 40 0 0,0
14.06.2019 00:00:00 12,7 11,0 10,1 15,7 19,0 14,1 4 2 5 3 NW 1017,5 51 0 0,0
13.06.2019 23:00:00 13,6 10,7 11,1 16,8 19,4 14,1 4 2 5 3 W 1016,8 70 0 0,0
13.06.2019 22:00:00 16,5 10,7 12,0 18,1 19,6 14,1 3 2 6 3 NW 1015,8 70 13 0,0
13.06.2019 21:00:00 19,5 11,1 15,9 19,6 19,8 14,1 5 3 15 8 WNW 1014,4 70 44 0,0
13.06.2019 20:00:00 20,9 10,0 20,7 21,3 19,8 14,2 11 6 20 11 SSW 1013,7 45 59 0,0
13.06.2019 19:00:00 21,8 9,9 23,2 23,2 19,6 14,2 11 6 23 12 S 1013,0 70 60 0,0
13.06.2019 18:00:00 22,4 10,7 24,9 24,6 19,3 14,2 8 4 23 12 SSW 1012,5 70 55 0,0
13.06.2019 17:00:00 21,6 8,9 24,4 25,7 18,8 14,2 12 7 33 18 S 1012,7 70 53 0,0
13.06.2019 16:00:00 21,5 10,0 25,7 26,6 18,3 14,2 8 4 26 14 ESE 1012,7 67 55 0,0
13.06.2019 15:00:00 21,2 9,9 25,4 26,2 17,6 14,2 9 5 21 11 SSE 1013,0 70 51 0,0
13.06.2019 14:00:00 20,2 11,3 24,2 26,2 17,0 14,2 10 5 17 9 SSE 1013,4 27 57 0,0
13.06.2019 13:00:00 18,9 10,2 24,3 24,7 16,4 14,2 8 4 16 8 E 1014,1 58 40 0,0
13.06.2019 12:00:00 18,2 10,8 21,1 23,0 15,9 14,2 5 3 13 7 SE 1014,4 70 54 0,0
13.06.2019 11:00:00 17,6 11,0 21,4 20,3 15,7 14,2 8 4 16 9 SE 1014,6 46 46 0,0

tt = Température de l'air
td = dewpoint
tt 5cm = Température de l'air 5cm
tt -5cm = Température de l'air -5cm
tt -20cm = Température de l'air -20cm
tt -100cm = Température de l'air -100cm
ff = Vitesse du vent
fx = gusts
dd = Direction du vent
ppp = reduced air pressure
vv = visibility
sd = Ensoleillement
rr = Quantités de précipitations

stations d'obs. à proximité